This is the latest recevied weather packets stored in our database for station/object KA9CBS. If no packets are shown the sender has not sent any weather packets the latest 10 day(s).
| Time | Temp. | Humidity | Pressure | Rain* | Wind** | Luminosity | Snow |
|---|---|---|---|---|---|---|---|
| 1787509299 | 26.67° C | 58% | 1019.7 hPa | 0 mm | - | 695 W/m² | - |
| 1787508998 | 26.67° C | 58% | 1019.7 hPa | 0 mm | - | 698 W/m² | - |
| 1787508695 | 26.67° C | 54% | 1019.8 hPa | 0 mm | - | 688 W/m² | - |
| 1787508394 | 26.67° C | 56% | 1019.8 hPa | 0 mm | - | 632 W/m² | - |
| 1787508091 | 27.78° C | 57% | 1019.7 hPa | 0 mm | - | 629 W/m² | - |
| 1787507787 | 27.22° C | 54% | 1020.1 hPa | 0 mm | - | 662 W/m² | - |
| 1787507483 | 26.67° C | 54% | 1020.1 hPa | 0 mm | - | 702 W/m² | - |
| 1787507178 | 26.67° C | 57% | 1020 hPa | 0 mm | - | 710 W/m² | - |
| 1787506874 | 26.67° C | 55% | 1020.2 hPa | 0 mm | - | 680 W/m² | - |
| 1787506570 | 26.11° C | 56% | 1020.1 hPa | 0 mm | - | 688 W/m² | - |
| 1787506266 | 26.67° C | 58% | 1020.4 hPa | 0 mm | - | 619 W/m² | - |
| 1787505960 | 26.67° C | 56% | 1020.1 hPa | 0 mm | - | 649 W/m² | - |
| 1787505656 | 26.67° C | 55% | 1020.1 hPa | 0 mm | - | 624 W/m² | - |
| 1787505350 | 26.67° C | 54% | 1020.2 hPa | 0 mm | - | 636 W/m² | - |
| 1787505046 | 26.11° C | 57% | 1020.4 hPa | 0 mm | - | 669 W/m² | - |
| 1787504741 | 26.67° C | 58% | 1020.5 hPa | 0 mm | - | 672 W/m² | - |
| 1787504438 | 26.11° C | 59% | 1020.6 hPa | 0 mm | - | 691 W/m² | - |
| 1787504132 | 25.56° C | 57% | 1020.4 hPa | 0 mm | - | 676 W/m² | - |
| 1787503827 | 26.11° C | 55% | 1020.2 hPa | 0 mm | - | 652 W/m² | - |
| 1787503523 | 26.11° C | 58% | 1020.3 hPa | 0 mm | - | 626 W/m² | - |
| 1787503219 | 26.11° C | 59% | 1020.5 hPa | 0 mm | - | 636 W/m² | - |
| 1787502908 | 26.11° C | 56% | 1020.5 hPa | 0 mm | - | 623 W/m² | - |
| 1787502604 | 26.11° C | 58% | 1020.4 hPa | 0 mm | - | 655 W/m² | - |
| 1787502304 | 25.56° C | 63% | 1020.5 hPa | 0 mm | - | 630 W/m² | - |
| 1787501999 | 25.56° C | 59% | 1020.4 hPa | 0 mm | - | 632 W/m² | - |
* Rain latest hour (hover to see other rain measurements)
** Current wind speed in m/s (hover to see current wind gust speed)